Location: Peebles
(55.6412°N, 3.1714°W)
Time: 07:28:55
(UTC+00:00)

FENGYUN 1C DEB - Visible Passes

Search period start: 08 February 2023 00:00
Search period end: 18 February 2023 00:00
Orbit: 781 x 966 km, 98.7° (Epoch: 07 February)

Date Brightness Start Highest point End Pass type
(mag) Time Alt. Az. Time Alt. Az. Time Alt. Az.
08 Feb ? 22:47:56 11° N 22:47:56 11° N 22:48:04 10° N visible
09 Feb ? 22:42:45 11° N 22:42:45 11° N 22:42:57 10° N visible
10 Feb ? 22:37:34 11° N 22:37:34 11° N 22:37:50 10° N visible
11 Feb ? 22:32:21 11° N 22:32:21 11° N 22:32:41 10° N visible
12 Feb ? 22:27:08 12° N 22:27:08 12° N 22:27:31 10° N visible
13 Feb ? 22:21:53 12° N 22:21:53 12° N 22:22:19 10° N visible
14 Feb ? 22:16:37 12° N 22:16:37 12° N 22:17:06 10° N visible
15 Feb ? 22:11:20 12° N 22:11:20 12° N 22:11:52 10° N visible
15 Feb ? 23:53:48 11° NNW 23:53:48 11° NNW 23:53:55 10° NNW visible
16 Feb ? 22:06:01 12° N 22:06:01 12° N 22:06:36 10° N visible
16 Feb ? 23:48:30 11° NNW 23:48:30 11° NNW 23:48:44 10° NNW visible
17 Feb ? 22:00:42 12° NNE 22:00:42 12° NNE 22:01:19 10° N visible
17 Feb ? 23:43:11 12° NNW 23:43:11 12° NNW 23:43:32 10° NNW visible
